| time (UTC) | temp C | wind direction | speed KPH | gust KPH | rain 1hr cm | rain 24hr cm | rain mn cm | humidity % | barometer mb |
| 20260507065901 | 13 | 315 | 0.0 | 0.0 | 0.00 | 0.41 | 0.00 | 92 | 1012.3 |
| 20260507064900 | 12 | 22 | 1.6 | 1.6 | 0.00 | 0.41 | 0.00 | 93 | 1012.2 |
| 20260507064402 | 12 | 112 | 0.0 | 3.2 | 0.00 | 0.41 | 0.00 | 93 | 1012.1 |
| 20260507063900 | 12 | 0 | 0.0 | 0.0 | 0.00 | 0.41 | 0.00 | 93 | 1012.2 |
| 20260507063618 | 12 | 337 | 0.0 | 0.0 | 0.00 | 0.41 | 0.00 | 93 | 1012.2 |
| 20260507063400 | 12 | 337 | 0.0 | 0.0 | 0.00 | 0.41 | 0.00 | 93 | 1012.2 |
| 20260507062859 | 12 | 0 | 0.0 | 0.0 | 0.00 | 0.41 | 0.00 | 93 | 1012.3 |
| 20260507062400 | 12 | 135 | 0.0 | 0.0 | 0.00 | 0.41 | 0.00 | 93 | 1012.2 |
| 20260507061859 | 12 | 135 | 0.0 | 0.0 | 0.00 | 0.41 | 0.00 | 93 | 1012.1 |
| 20260507060858 | 11 | 22 | 0.0 | 0.0 | 0.00 | 0.41 | 0.00 | 93 | 1012.0 |
| 20260507060400 | 11 | 112 | 0.0 | 0.0 | 0.00 | 0.41 | 0.00 | 93 | 1011.9 |
| 20260507055857 | 11 | 22 | 0.0 | 0.0 | 0.00 | 0.41 | 0.00 | 93 | 1011.8 |
| 20260507055358 | 11 | 22 | 0.0 | 0.0 | 0.00 | 0.41 | 0.00 | 94 | 1011.9 |
| 20260507054857 | 11 | 22 | 0.0 | 0.0 | 0.00 | 0.41 | 0.00 | 94 | 1011.8 |
| 20260507053856 | 11 | 22 | 0.0 | 0.0 | 0.00 | 0.41 | 0.00 | 94 | 1011.8 |
| 20260507053358 | 11 | 67 | 0.0 | 0.0 | 0.00 | 0.41 | 0.00 | 94 | 1011.6 |
| 20260507052856 | 11 | 157 | 0.0 | 0.0 | 0.00 | 0.41 | 0.00 | 94 | 1011.7 |
| 20260507051855 | 11 | 157 | 0.0 | 0.0 | 0.00 | 0.41 | 0.00 | 93 | 1011.7 |
| 20260507050855 | 10 | 202 | 0.0 | 0.0 | 0.00 | 0.41 | 0.00 | 93 | 1011.5 |
| 20260507050355 | 10 | 180 | 0.0 | 0.0 | 0.00 | 0.41 | 0.00 | 93 | 1011.3 |
| 20260507045854 | 10 | 135 | 0.0 | 0.0 | 0.00 | 0.41 | 0.00 | 93 | 1011.3 |
| 20260507045356 | 10 | 112 | 0.0 | 0.0 | 0.00 | 0.41 | 0.00 | 93 | 1011.4 |
| 20260507044853 | 10 | 67 | 0.0 | 0.0 | 0.00 | 0.41 | 0.00 | 93 | 1011.2 |
| 20260507044355 | 10 | 67 | 0.0 | 0.0 | 0.00 | 0.41 | 0.00 | 93 | 1011.2 |
| 20260507044118 | 10 | 67 | 0.0 | 0.0 | 0.00 | 0.41 | 0.00 | 93 | 1011.1 |
| 20260507043853 | 10 | 67 | 0.0 | 0.0 | 0.00 | 0.41 | 0.00 | 93 | 1011.1 |
| 20260507043355 | 10 | 67 | 0.0 | 0.0 | 0.00 | 0.41 | 0.00 | 93 | 1011.0 |
| 20260507042852 | 10 | 22 | 0.0 | 0.0 | 0.00 | 0.41 | 0.00 | 93 | 1011.1 |
| 20260507042354 | 10 | 90 | 0.0 | 0.0 | 0.05 | 0.41 | 0.00 | 93 | 1011.0 |
| 20260507041852 | 10 | 90 | 0.0 | 0.0 | 0.05 | 0.41 | 0.00 | 93 | 1011.0 |
| 20260507041355 | 10 | 22 | 0.0 | 0.0 | 0.05 | 0.41 | 0.00 | 93 | 1011.0 |
| 20260507040851 | 10 | 315 | 0.0 | 0.0 | 0.05 | 0.41 | 0.00 | 93 | 1011.0 |
| 20260507040353 | 10 | 22 | 0.0 | 0.0 | 0.05 | 0.41 | 0.00 | 93 | 1010.9 |
| 20260507035851 | 10 | 22 | 0.0 | 0.0 | 0.05 | 0.41 | 0.00 | 93 | 1010.9 |
| 20260507034850 | 10 | 22 | 0.0 | 0.0 | 0.05 | 0.41 | 0.00 | 93 | 1010.9 |
| 20260507034356 | 10 | 22 | 0.0 | 0.0 | 0.05 | 0.41 | 0.00 | 93 | 1010.8 |
| 20260507033850 | 10 | 157 | 0.0 | 0.0 | 0.05 | 0.41 | 0.00 | 93 | 1010.8 |
| 20260507033353 | 10 | 157 | 0.0 | 0.0 | 0.05 | 0.41 | 0.00 | 93 | 1010.9 |
| 20260507032849 | 10 | 45 | 0.0 | 0.0 | 0.05 | 0.41 | 0.00 | 93 | 1010.9 |
| 20260507032353 | 10 | 0 | 0.0 | 0.0 | 0.00 | 0.36 | 0.00 | 93 | 1010.7 |
| 20260507031848 | 10 | 180 | 0.0 | 0.0 | 0.00 | 0.36 | 0.00 | 93 | 1010.7 |
| 20260507030848 | 10 | 247 | 0.0 | 0.0 | 0.00 | 0.36 | 0.00 | 93 | 1010.7 |
| 20260507030351 | 10 | 247 | 0.0 | 0.0 | 0.00 | 0.36 | 0.00 | 93 | 1010.8 |
| 20260507025847 | 10 | 247 | 0.0 | 0.0 | 0.00 | 0.36 | 0.00 | 93 | 1010.7 |
| 20260507024847 | 10 | 22 | 0.0 | 0.0 | 0.00 | 0.36 | 0.00 | 93 | 1010.8 |
| 20260507023846 | 10 | 22 | 0.0 | 0.0 | 0.00 | 0.36 | 0.00 | 93 | 1010.7 |
| 20260507023349 | 10 | 90 | 0.0 | 0.0 | 0.00 | 0.36 | 0.00 | 93 | 1010.8 |
| 20260507022846 | 10 | 90 | 0.0 | 0.0 | 0.00 | 0.36 | 0.00 | 93 | 1010.8 |
| 20260507022353 | 10 | 22 | 0.0 | 0.0 | 0.00 | 0.36 | 0.00 | 93 | 1010.8 |
| 20260507021845 | 10 | 22 | 0.0 | 0.0 | 0.00 | 0.36 | 0.00 | 93 | 1010.7 |
| 20260507020844 | 11 | 157 | 1.6 | 1.6 | 0.00 | 0.36 | 0.00 | 92 | 1010.5 |
| 20260507020348 | 11 | 180 | 0.0 | 0.0 | 0.00 | 0.36 | 0.00 | 92 | 1010.6 |
| 20260507015844 | 11 | 180 | 0.0 | 0.0 | 0.00 | 0.36 | 0.00 | 92 | 1010.8 |
| 20260507015345 | 10 | 180 | 0.0 | 0.0 | 0.00 | 0.36 | 0.00 | 92 | 1010.8 |
| 20260507014844 | 10 | 202 | 0.0 | 0.0 | 0.00 | 0.36 | 0.00 | 92 | 1010.7 |
| 20260507014348 | 11 | 22 | 0.0 | 0.0 | 0.00 | 0.36 | 0.00 | 92 | 1010.8 |
| 20260507013843 | 11 | 22 | 0.0 | 0.0 | 0.00 | 0.36 | 0.00 | 92 | 1010.6 |
| 20260507012842 | 11 | 22 | 0.0 | 0.0 | 0.00 | 0.36 | 0.00 | 92 | 1010.8 |
| 20260507012352 | 11 | 112 | 0.0 | 0.0 | 0.00 | 0.36 | 0.00 | 92 | 1010.7 |
| 20260507011842 | 11 | 22 | 0.0 | 0.0 | 0.00 | 0.36 | 0.00 | 92 | 1010.7 |
| 20260507011345 | 11 | 22 | 0.0 | 0.0 | 0.00 | 0.36 | 0.00 | 92 | 1010.7 |
| 20260507010841 | 11 | 22 | 0.0 | 0.0 | 0.00 | 0.36 | 0.00 | 92 | 1010.7 |
| 20260507005840 | 11 | 135 | 0.0 | 0.0 | 0.00 | 0.36 | 0.00 | 92 | 1010.7 |
| 20260507004840 | 11 | 90 | 0.0 | 0.0 | 0.00 | 0.36 | 0.00 | 92 | 1010.7 |
| 20260507003839 | 11 | 90 | 0.0 | 0.0 | 0.00 | 0.36 | 0.00 | 92 | 1010.7 |
| 20260507003346 | 11 | 112 | 0.0 | 0.0 | 0.00 | 0.36 | 0.00 | 92 | 1010.7 |
| 20260507002839 | 11 | 112 | 0.0 | 0.0 | 0.00 | 0.36 | 0.00 | 92 | 1010.9 |
| 20260507001838 | 11 | 22 | 0.0 | 0.0 | 0.00 | 0.36 | 0.00 | 92 | 1011.0 |
| 20260507001342 | 11 | 112 | 0.0 | 0.0 | 0.00 | 0.36 | 0.00 | 91 | 1010.9 |
| 20260507000838 | 11 | 22 | 0.0 | 0.0 | 0.00 | 0.36 | 0.00 | 91 | 1010.8 |
| 20260507000350 | 11 | 0 | 0.0 | 0.0 | 0.00 | 0.36 | 0.00 | 91 | 1010.9 |
| 20260506235837 | 12 | 22 | 0.0 | 0.0 | 0.00 | 0.36 | 0.00 | 91 | 1010.9 |
| 20260506235341 | 12 | 22 | 0.0 | 0.0 | 0.00 | 0.36 | 0.00 | 91 | 1010.9 |
| 20260506234836 | 12 | 67 | 0.0 | 0.0 | 0.00 | 0.36 | 0.00 | 91 | 1011.0 |
| 20260506233836 | 12 | 112 | 0.0 | 0.0 | 0.00 | 0.36 | 0.00 | 90 | 1011.1 |
| 20260506233339 | 12 | 112 | 0.0 | 0.0 | 0.00 | 0.36 | 0.00 | 90 | 1010.9 |
| 20260506232835 | 12 | 22 | 0.0 | 0.0 | 0.00 | 0.36 | 0.00 | 90 | 1010.9 |
| 20260506231835 | 12 | 315 | 0.0 | 0.0 | 0.00 | 0.36 | 0.00 | 90 | 1011.0 |
| 20260506231344 | 12 | 22 | 0.0 | 0.0 | 0.00 | 0.36 | 0.00 | 90 | 1011.1 |
| 20260506230834 | 12 | 292 | 0.0 | 0.0 | 0.00 | 0.36 | 0.00 | 89 | 1010.8 |
| 20260506225834 | 12 | 225 | 0.0 | 0.0 | 0.00 | 0.36 | 0.00 | 90 | 1011.2 |
| 20260506225336 | 12 | 202 | 0.0 | 0.0 | 0.00 | 0.36 | 0.00 | 90 | 1011.2 |
| 20260506224833 | 12 | 112 | 0.0 | 0.0 | 0.00 | 0.36 | 0.00 | 90 | 1011.1 |
| 20260506224342 | 12 | 112 | 0.0 | 1.6 | 0.00 | 0.36 | 0.00 | 90 | 1011.0 |
| 20260506223832 | 12 | 225 | 1.6 | 1.6 | 0.00 | 0.36 | 0.00 | 90 | 1011.1 |
| 20260506222917 | 12 | 292 | 0.0 | 1.6 | 0.00 | 0.36 | 0.00 | 91 | 1011.0 |
| 20260506222832 | 12 | 292 | 0.0 | 1.6 | 0.00 | 0.36 | 0.00 | 91 | 1011.0 |
| 20260506221906 | 12 | 225 | 3.2 | 3.2 | 0.00 | 0.36 | 0.00 | 91 | 1010.9 |
| 20260506221831 | 12 | 225 | 3.2 | 3.2 | 0.00 | 0.36 | 0.00 | 91 | 1010.9 |
| 20260506221333 | 12 | 202 | 0.0 | 0.0 | 0.00 | 0.36 | 0.00 | 91 | 1010.8 |
| 20260506220831 | 12 | 247 | 0.0 | 0.0 | 0.00 | 0.36 | 0.00 | 91 | 1010.8 |
| 20260506220416 | 12 | 247 | 0.0 | 0.0 | 0.00 | 0.36 | 0.00 | 91 | 1010.9 |
| 20260506220333 | 12 | 247 | 0.0 | 0.0 | 0.00 | 0.36 | 0.00 | 91 | 1010.9 |
| 20260506215830 | 13 | 180 | 0.0 | 0.0 | 0.00 | 0.36 | 0.00 | 91 | 1010.6 |
| 20260506215332 | 13 | 202 | 0.0 | 0.0 | 0.00 | 0.36 | 0.00 | 91 | 1010.6 |
| 20260506214830 | 13 | 135 | 0.0 | 0.0 | 0.00 | 0.36 | 0.00 | 91 | 1010.5 |
| 20260506214330 | 13 | 45 | 0.0 | 0.0 | 0.00 | 0.36 | 0.00 | 91 | 1010.4 |
| 20260506213829 | 13 | 135 | 0.0 | 0.0 | 0.00 | 0.36 | 0.00 | 91 | 1010.5 |
| 20260506213330 | 13 | 135 | 0.0 | 0.0 | 0.00 | 0.36 | 0.00 | 91 | 1010.7 |
| 20260506212828 | 13 | 292 | 0.0 | 0.0 | 0.00 | 0.36 | 0.00 | 91 | 1010.7 |
| 20260506212329 | 13 | 22 | 0.0 | 0.0 | 0.00 | 0.36 | 0.00 | 91 | 1010.7 |
| 20260506211828 | 13 | 22 | 0.0 | 0.0 | 0.00 | 0.36 | 0.00 | 91 | 1010.6 |
| 20260506211330 | 13 | 180 | 0.0 | 0.0 | 0.00 | 0.36 | 0.00 | 91 | 1010.6 |
| 20260506210828 | 13 | 112 | 0.0 | 0.0 | 0.00 | 0.36 | 0.00 | 91 | 1010.6 |
| 20260506210328 | 13 | 247 | 0.0 | 0.0 | 0.00 | 0.36 | 0.00 | 91 | 1010.6 |
| 20260506205827 | 13 | 315 | 0.0 | 0.0 | 0.05 | 0.36 | 0.00 | 91 | 1010.6 |
| 20260506205329 | 13 | 112 | 0.0 | 0.0 | 0.05 | 0.36 | 0.00 | 91 | 1010.3 |
| 20260506204826 | 13 | 90 | 0.0 | 0.0 | 0.05 | 0.36 | 0.00 | 91 | 1010.5 |
| 20260506204328 | 13 | 90 | 0.0 | 0.0 | 0.05 | 0.36 | 0.00 | 91 | 1010.6 |
| 20260506203826 | 13 | 0 | 0.0 | 1.6 | 0.05 | 0.36 | 0.00 | 91 | 1010.6 |
| 20260506203326 | 13 | 22 | 1.6 | 1.6 | 0.05 | 0.36 | 0.00 | 90 | 1010.2 |
| 20260506202825 | 13 | 315 | 0.0 | 0.0 | 0.05 | 0.36 | 0.00 | 90 | 1010.2 |
| 20260506202326 | 13 | 112 | 0.0 | 0.0 | 0.05 | 0.36 | 0.00 | 90 | 1010.3 |
| 20260506201824 | 13 | 135 | 0.0 | 0.0 | 0.05 | 0.36 | 0.00 | 89 | 1010.2 |
| 20260506200824 | 13 | 112 | 0.0 | 0.0 | 0.05 | 0.36 | 0.00 | 89 | 1010.2 |
| 20260506200325 | 13 | 90 | 0.0 | 0.0 | 0.10 | 0.36 | 0.00 | 89 | 1010.2 |
| 20260506195823 | 13 | 157 | 0.0 | 0.0 | 0.05 | 0.30 | 0.00 | 89 | 1010.2 |
| 20260506195324 | 13 | 225 | 0.0 | 0.0 | 0.05 | 0.30 | 0.00 | 89 | 1010.1 |
| 20260506194823 | 13 | 202 | 0.0 | 0.0 | 0.05 | 0.30 | 0.00 | 88 | 1010.1 |
| 20260506194323 | 13 | 270 | 0.0 | 0.0 | 0.05 | 0.30 | 0.00 | 88 | 1010.0 |
| 20260506193822 | 14 | 315 | 0.0 | 0.0 | 0.05 | 0.30 | 0.00 | 88 | 1009.9 |
| 20260506193323 | 14 | 315 | 0.0 | 0.0 | 0.05 | 0.30 | 0.00 | 88 | 1009.8 |
| 20260506192822 | 14 | 292 | 0.0 | 0.0 | 0.05 | 0.30 | 0.00 | 88 | 1009.8 |
| 20260506192324 | 14 | 45 | 0.0 | 0.0 | 0.05 | 0.30 | 0.00 | 88 | 1009.8 |
| 20260506191821 | 14 | 315 | 0.0 | 0.0 | 0.05 | 0.30 | 0.00 | 88 | 1009.9 |
| 20260506190820 | 14 | 315 | 0.0 | 0.0 | 0.00 | 0.25 | 0.00 | 88 | 1009.9 |
| 20260506190322 | 14 | 270 | 0.0 | 0.0 | 0.00 | 0.25 | 0.00 | 88 | 1009.8 |
| 20260506185820 | 14 | 270 | 0.0 | 0.0 | 0.00 | 0.25 | 0.00 | 88 | 1009.9 |
| 20260506185321 | 14 | 292 | 0.0 | 0.0 | 0.00 | 0.25 | 0.00 | 88 | 1009.9 |
| 20260506184819 | 14 | 45 | 0.0 | 0.0 | 0.00 | 0.25 | 0.00 | 88 | 1009.7 |
| 20260506184508 | 14 | 45 | 0.0 | 0.0 | 0.00 | 0.25 | 0.00 | 88 | 1009.4 |
| 20260506184320 | 14 | 45 | 0.0 | 0.0 | 0.00 | 0.25 | 0.00 | 88 | 1009.4 |
| 20260506183819 | 15 | 112 | 0.0 | 0.0 | 0.00 | 0.25 | 0.00 | 88 | 1009.1 |
| 20260506183354 | 15 | 247 | 0.0 | 0.0 | 0.00 | 0.25 | 0.00 | 87 | 1009.2 |
| 20260506183321 | 15 | 247 | 0.0 | 0.0 | 0.00 | 0.25 | 0.00 | 87 | 1009.2 |
| 20260506182818 | 15 | 90 | 0.0 | 0.0 | 0.00 | 0.25 | 0.00 | 87 | 1009.1 |
| 20260506182320 | 15 | 0 | 0.0 | 0.0 | 0.00 | 0.25 | 0.00 | 87 | 1009.0 |
| 20260506181818 | 15 | 22 | 0.0 | 0.0 | 0.00 | 0.25 | 0.00 | 87 | 1009.0 |
| 20260506180817 | 15 | 22 | 0.0 | 0.0 | 0.00 | 0.25 | 0.00 | 87 | 1009.0 |
| 20260506180318 | 15 | 22 | 0.0 | 1.6 | 0.00 | 0.25 | 0.00 | 86 | 1008.8 |
| 20260506175816 | 15 | 45 | 0.0 | 0.0 | 0.00 | 0.25 | 0.00 | 85 | 1008.8 |
| 20260506175317 | 15 | 45 | 0.0 | 0.0 | 0.00 | 0.25 | 0.00 | 84 | 1008.8 |
| 20260506174816 | 15 | 90 | 0.0 | 0.0 | 0.00 | 0.25 | 0.00 | 84 | 1008.8 |
| 20260506174317 | 16 | 112 | 0.0 | 0.0 | 0.00 | 0.25 | 0.00 | 83 | 1008.7 |
| 20260506173815 | 16 | 112 | 0.0 | 0.0 | 0.00 | 0.25 | 0.00 | 83 | 1009.0 |
| 20260506172815 | 16 | 247 | 0.0 | 0.0 | 0.00 | 0.25 | 0.00 | 81 | 1008.9 |
| 20260506172316 | 16 | 247 | 0.0 | 0.0 | 0.00 | 0.25 | 0.00 | 81 | 1008.8 |
| 20260506171845 | 16 | 247 | 0.0 | 0.0 | 0.00 | 0.25 | 0.00 | 80 | 1008.9 |
| 20260506171814 | 16 | 247 | 0.0 | 0.0 | 0.00 | 0.25 | 0.00 | 80 | 1008.9 |
| 20260506170814 | 16 | 225 | 1.6 | 1.6 | 0.00 | 0.25 | 0.00 | 80 | 1008.9 |
| 20260506170317 | 17 | 247 | 0.0 | 0.0 | 0.00 | 0.25 | 0.00 | 80 | 1009.0 |
| 20260506165813 | 17 | 202 | 0.0 | 0.0 | 0.00 | 0.25 | 0.00 | 81 | 1008.9 |
| 20260506165314 | 17 | 225 | 0.0 | 0.0 | 0.00 | 0.25 | 0.00 | 81 | 1008.9 |
| 20260506164812 | 16 | 225 | 0.0 | 0.0 | 0.00 | 0.25 | 0.00 | 81 | 1009.0 |
| 20260506163812 | 17 | 202 | 4.8 | 4.8 | 0.00 | 0.25 | 0.00 | 80 | 1009.0 |
| 20260506163313 | 17 | 202 | 4.8 | 4.8 | 0.00 | 0.25 | 0.00 | 80 | 1009.0 |
| 20260506162811 | 17 | 180 | 0.0 | 0.0 | 0.00 | 0.25 | 0.00 | 80 | 1009.1 |
| 20260506162314 | 17 | 22 | 0.0 | 0.0 | 0.00 | 0.25 | 0.00 | 81 | 1009.2 |
| 20260506161811 | 17 | 315 | 0.0 | 3.2 | 0.00 | 0.25 | 0.00 | 81 | 1009.3 |
| 20260506160810 | 17 | 202 | 0.0 | 0.0 | 0.00 | 0.25 | 0.00 | 82 | 1009.3 |
| 20260506160311 | 17 | 270 | 0.0 | 1.6 | 0.00 | 0.25 | 0.00 | 82 | 1009.3 |
| 20260506155810 | 17 | 202 | 1.6 | 3.2 | 0.00 | 0.25 | 0.00 | 83 | 1009.4 |
| 20260506155310 | 16 | 202 | 3.2 | 4.8 | 0.00 | 0.25 | 0.00 | 84 | 1009.4 |
| 20260506154809 | 17 | 270 | 0.0 | 1.6 | 0.00 | 0.25 | 0.00 | 84 | 1009.7 |
| 20260506153809 | 16 | 247 | 1.6 | 3.2 | 0.00 | 0.25 | 0.00 | 85 | 1009.5 |
| 20260506153310 | 16 | 247 | 3.2 | 3.2 | 0.00 | 0.25 | 0.00 | 87 | 1009.7 |
| 20260506152808 | 16 | 135 | 0.0 | 1.6 | 0.00 | 0.25 | 0.00 | 87 | 1009.8 |
| 20260506152310 | 16 | 45 | 0.0 | 0.0 | 0.00 | 0.25 | 0.00 | 87 | 1009.8 |
| 20260506151807 | 16 | 337 | 0.0 | 0.0 | 0.00 | 0.25 | 0.00 | 87 | 1009.8 |
| 20260506151311 | 15 | 135 | 0.0 | 0.0 | 0.05 | 0.25 | 0.00 | 87 | 1009.7 |
| 20260506150807 | 15 | 247 | 0.0 | 0.0 | 0.05 | 0.25 | 0.00 | 87 | 1009.8 |
| 20260506150308 | 15 | 157 | 0.0 | 0.0 | 0.05 | 0.25 | 0.00 | 87 | 1009.7 |
| 20260506145806 | 15 | 0 | 0.0 | 0.0 | 0.05 | 0.25 | 0.00 | 87 | 1009.8 |
| 20260506145307 | 15 | 112 | 0.0 | 0.0 | 0.05 | 0.25 | 0.00 | 87 | 1009.8 |
| 20260506144806 | 15 | 45 | 0.0 | 0.0 | 0.05 | 0.25 | 0.00 | 87 | 1009.8 |
| 20260506144306 | 15 | 315 | 0.0 | 0.0 | 0.05 | 0.25 | 0.00 | 87 | 1009.8 |
| 20260506143805 | 15 | 45 | 0.0 | 0.0 | 0.05 | 0.25 | 0.00 | 87 | 1009.8 |
| 20260506143306 | 15 | 292 | 0.0 | 0.0 | 0.05 | 0.25 | 0.00 | 87 | 1009.9 |
| 20260506142805 | 15 | 225 | 0.0 | 0.0 | 0.05 | 0.25 | 0.00 | 87 | 1009.8 |
| 20260506142306 | 15 | 292 | 0.0 | 0.0 | 0.05 | 0.25 | 0.00 | 87 | 1009.8 |
| 20260506141804 | 15 | 225 | 0.0 | 0.0 | 0.00 | 0.20 | 0.00 | 87 | 1009.9 |
| 20260506141305 | 15 | 292 | 0.0 | 0.0 | 0.00 | 0.20 | 0.00 | 87 | 1009.9 |
| 20260506140803 | 15 | 247 | 0.0 | 0.0 | 0.00 | 0.20 | 0.00 | 87 | 1009.9 |
| 20260506135803 | 15 | 180 | 0.0 | 0.0 | 0.00 | 0.20 | 0.00 | 86 | 1010.0 |
| 20260506135306 | 15 | 292 | 0.0 | 0.0 | 0.00 | 0.20 | 0.00 | 86 | 1010.0 |
| 20260506134802 | 16 | 315 | 0.0 | 4.8 | 0.00 | 0.20 | 0.00 | 86 | 1010.2 |
| 20260506134303 | 16 | 315 | 4.8 | 4.8 | 0.00 | 0.20 | 0.00 | 86 | 1010.4 |
| 20260506133802 | 16 | 315 | 0.0 | 1.6 | 0.00 | 0.20 | 0.00 | 86 | 1010.3 |
| 20260506133302 | 16 | 315 | 1.6 | 1.6 | 0.00 | 0.20 | 0.00 | 86 | 1010.4 |
| 20260506132801 | 16 | 45 | 0.0 | 0.0 | 0.00 | 0.20 | 0.00 | 87 | 1010.4 |
| 20260506132302 | 16 | 337 | 0.0 | 3.2 | 0.00 | 0.20 | 0.00 | 87 | 1010.4 |
| 20260506131801 | 16 | 292 | 0.0 | 3.2 | 0.00 | 0.20 | 0.00 | 87 | 1010.4 |
| 20260506131301 | 16 | 0 | 0.0 | 0.0 | 0.00 | 0.20 | 0.00 | 87 | 1010.4 |
| 20260506130800 | 16 | 292 | 0.0 | 0.0 | 0.00 | 0.20 | 0.00 | 87 | 1010.3 |
| 20260506130301 | 15 | 292 | 0.0 | 0.0 | 0.00 | 0.20 | 0.00 | 87 | 1010.4 |
| 20260506125759 | 15 | 135 | 0.0 | 0.0 | 0.00 | 0.20 | 0.00 | 87 | 1010.4 |
| 20260506124759 | 15 | 22 | 0.0 | 0.0 | 0.00 | 0.20 | 0.00 | 87 | 1010.5 |
| 20260506124300 | 15 | 315 | 0.0 | 0.0 | 0.00 | 0.20 | 0.00 | 87 | 1010.5 |
| 20260506123758 | 15 | 315 | 0.0 | 0.0 | 0.00 | 0.20 | 0.00 | 87 | 1010.6 |
| 20260506123259 | 15 | 0 | 0.0 | 0.0 | 0.00 | 0.20 | 0.00 | 87 | 1010.6 |
| 20260506122758 | 15 | 270 | 0.0 | 0.0 | 0.00 | 0.20 | 0.00 | 87 | 1010.7 |
| 20260506122258 | 15 | 0 | 0.0 | 0.0 | 0.00 | 0.20 | 0.00 | 87 | 1010.5 |
| 20260506121757 | 15 | 292 | 0.0 | 0.0 | 0.00 | 0.20 | 0.00 | 87 | 1010.7 |
| 20260506121258 | 15 | 45 | 0.0 | 0.0 | 0.00 | 0.20 | 0.00 | 87 | 1010.6 |
| 20260506120757 | 15 | 180 | 0.0 | 0.0 | 0.00 | 0.20 | 0.00 | 87 | 1010.5 |
| 20260506120259 | 15 | 292 | 0.0 | 0.0 | 0.00 | 0.20 | 0.00 | 87 | 1010.5 |
| 20260506115756 | 15 | 315 | 0.0 | 0.0 | 0.00 | 0.20 | 0.00 | 87 | 1010.5 |
| 20260506114755 | 15 | 270 | 0.0 | 0.0 | 0.00 | 0.20 | 0.00 | 87 | 1010.6 |
| 20260506113755 | 15 | 225 | 0.0 | 0.0 | 0.00 | 0.20 | 0.00 | 87 | 1010.6 |
| 20260506112754 | 15 | 292 | 0.0 | 0.0 | 0.00 | 0.20 | 0.00 | 87 | 1010.8 |
| 20260506111754 | 15 | 315 | 1.6 | 1.6 | 0.00 | 0.20 | 0.00 | 87 | 1010.8 |
| 20260506111254 | 15 | 67 | 0.0 | 0.0 | 0.00 | 0.20 | 0.00 | 87 | 1010.8 |
| 20260506110753 | 15 | 292 | 0.0 | 0.0 | 0.00 | 0.20 | 0.00 | 87 | 1010.9 |
| 20260506110254 | 15 | 292 | 0.0 | 0.0 | 0.05 | 0.20 | 0.00 | 87 | 1010.9 |
| 20260506105753 | 15 | 292 | 0.0 | 0.0 | 0.05 | 0.20 | 0.00 | 87 | 1011.0 |
| 20260506105255 | 15 | 67 | 0.0 | 0.0 | 0.05 | 0.20 | 0.00 | 87 | 1010.9 |
| 20260506104752 | 15 | 315 | 0.0 | 0.0 | 0.05 | 0.20 | 0.00 | 87 | 1011.0 |
| 20260506103751 | 15 | 270 | 0.0 | 0.0 | 0.10 | 0.20 | 0.00 | 87 | 1011.2 |
| 20260506103255 | 15 | 180 | 0.0 | 0.0 | 0.10 | 0.20 | 0.00 | 87 | 1011.2 |
| 20260506102751 | 15 | 337 | 0.0 | 0.0 | 0.10 | 0.20 | 0.00 | 87 | 1011.2 |
| 20260506102255 | 15 | 337 | 0.0 | 0.0 | 0.10 | 0.20 | 0.00 | 87 | 1011.1 |
| 20260506101750 | 15 | 315 | 0.0 | 0.0 | 0.10 | 0.20 | 0.00 | 87 | 1011.1 |
| 20260506100750 | 15 | 225 | 0.0 | 3.2 | 0.05 | 0.15 | 0.00 | 86 | 1011.3 |
| 20260506095749 | 15 | 315 | 0.0 | 0.0 | 0.15 | 0.15 | 0.00 | 85 | 1011.4 |
| 20260506095250 | 16 | 270 | 0.0 | 0.0 | 0.15 | 0.15 | 0.00 | 85 | 1011.4 |
| 20260506094749 | 16 | 315 | 0.0 | 0.0 | 0.15 | 0.15 | 0.00 | 84 | 1011.4 |
| 20260506094249 | 16 | 315 | 0.0 | 0.0 | 0.10 | 0.10 | 0.00 | 84 | 1011.4 |
| 20260506093748 | 16 | 225 | 0.0 | 0.0 | 0.10 | 0.10 | 0.00 | 85 | 1011.4 |
| 20260506093249 | 16 | 292 | 0.0 | 0.0 | 0.10 | 0.10 | 0.00 | 84 | 1011.4 |
| 20260506092748 | 16 | 225 | 0.0 | 0.0 | 0.10 | 0.10 | 0.00 | 84 | 1011.5 |
| 20260506091747 | 16 | 225 | 1.6 | 1.6 | 0.10 | 0.10 | 0.00 | 85 | 1011.5 |
| 20260506091248 | 16 | 67 | 0.0 | 0.0 | 0.10 | 0.10 | 0.00 | 85 | 1011.5 |
| 20260506090746 | 15 | 157 | 0.0 | 0.0 | 0.10 | 0.10 | 0.00 | 85 | 1011.4 |
| 20260506090247 | 15 | 112 | 0.0 | 0.0 | 0.10 | 0.10 | 0.00 | 84 | 1011.4 |
| 20260506085746 | 15 | 247 | 0.0 | 3.2 | 0.00 | 0.00 | 0.00 | 84 | 1011.4 |
| 20260506085249 | 15 | 225 | 3.2 | 3.2 | 0.00 | 0.00 | 0.00 | 84 | 1011.6 |
| 20260506084745 | 15 | 202 | 0.0 | 0.0 | 0.00 | 0.00 | 0.00 | 83 | 1011.5 |
| 20260506084246 | 16 | 180 | 0.0 | 0.0 | 0.00 | 0.00 | 0.00 | 83 | 1011.5 |
| 20260506083745 | 16 | 180 | 0.0 | 0.0 | 0.00 | 0.00 | 0.00 | 83 | 1011.4 |
| 20260506083245 | 16 | 135 | 0.0 | 0.0 | 0.00 | 0.00 | 0.00 | 83 | 1011.2 |
| 20260506082744 | 16 | 135 | 0.0 | 0.0 | 0.00 | 0.00 | 0.00 | 83 | 1011.1 |
| 20260506082245 | 16 | 112 | 0.0 | 0.0 | 0.00 | 0.00 | 0.00 | 83 | 1011.2 |
| 20260506081744 | 16 | 0 | 0.0 | 0.0 | 0.00 | 0.00 | 0.00 | 83 | 1011.1 |
| 20260506080743 | 16 | 180 | 0.0 | 1.6 | 0.00 | 0.00 | 0.00 | 82 | 1010.9 |
| 20260506080244 | 16 | 135 | 0.0 | 0.0 | 0.00 | 0.00 | 0.00 | 83 | 1010.9 |
| 20260506073242 | 15 | 90 | 0.0 | 0.0 | 0.00 | 0.00 | 0.00 | 84 | 1010.8 |
| 20260506072741 | 15 | 225 | 0.0 | 0.0 | 0.00 | 0.00 | 0.00 | 85 | 1010.9 |
| 20260506072241 | 15 | 225 | 0.0 | 1.6 | 0.00 | 0.00 | 0.00 | 86 | 1010.9 |
| 20260506071740 | 15 | 112 | 1.6 | 1.6 | 0.00 | 0.00 | 0.00 | 87 | 1011.0 |
| 20260506070740 | 13 | 135 | 0.0 | 0.0 | 0.00 | 0.00 | 0.00 | 89 | 1011.1 |
| 20260506070241 | 13 | 202 | 0.0 | 0.0 | 0.00 | 0.00 | 0.00 | 89 | 1011.3 |